Вернуться в каталог

DELTA 1 DEB

АктивенSSO
NORAD 42638·DEBRIS·🇺🇸 United States

Запущен Jun 12, 1975 с Vandenberg Space Force Base

Loading…

Ближайшие Пролёты (ближайшие 24 часа)

TLE

УстаревающийSource: Space-Track

Эпоха: Sep 3, 2026, 12:50 UTC

1 42638U 75052LX  26246.53518126  .00001008  00000-0  12685-2 0  9996
2 42638  99.7378   1.4033 0043903 202.8244 157.0948 13.66182672589480

Отслеживайте DELTA 1 DEB в реальном времени с AllMySat

Download on the App Store